Location: Dackenheim
(49.5215°N, 8.1854°E)
Time: 02:21:21
(UTC+00:00)

AO-85 - Pass Details

Date: 18 March 2026
Orbit: 507 x 686 km, 64.8° (Epoch: 12 April)

Event Time Altitude Azimuth Distance (km) Brightness Sun altitude
Exits shadow 04:36:36 14° 274° (W) 1,538 ? -10.2°
Maximum altitude 04:39:10 25° 324° (NW) 1,076 ? -9.8°
Drops below altitude 10° 04:42:25 10° 21° (NNE) 1,737 ? -9.3°
Sets 04:44:52 0° 35° (NE) 2,621 ? -8.9°
